Regional Weather Roundup
Issued by NWS

Home | Current Version | Previous Version | Text Only | Print | Product List | Glossary On
Versions: 1 2 3 4 5 6 7 8 9 10 11 12 13 14 15 16 17 18 19 20 21 22 23 24 25 26 27 28 29 30 31 32 33 34 35 36 37 38 39 40 41 42 43 44 45 46 47 48 49 50
000
ASUS45 KSLC 270310
RWRUT

UTAH REGIONAL WEATHER ROUNDUP
NATIONAL WEATHER SERVICE SALT LAKE CITY UT
900 PM MDT TUE JUL 26 2016

UTZ001>011-023>025-270400-

NORTHERN UTAH

CITY           SKY/WX    TMP DP  RH WIND       PRES   REMARKS
BRIGHAM CITY     N/A     89  36  15 W5        29.98R
HILL AFB       CLEAR     90  21   8 SW3       30.02F
LOGAN          PTCLDY    83  39  21 N10       30.00R
OGDEN          CLEAR     88  32  13 SE3       29.98F
PROVO AIRPORT  CLEAR     88  30  12 VRB3      30.01S
SALT LAKE CITY PTCLDY    94  23   8 E3        29.97S
VERNAL         CLEAR     76  42  29 W8        30.12S
WENDOVER       CLEAR     93  30  10 NW12      29.99S
HEBER CITY     PTCLDY    79  39  24 CALM      30.12R

$$

UTZ012>022-026-027-270400-

SOUTHERN/CENTRAL UTAH

CITY           SKY/WX    TMP DP  RH WIND       PRES   REMARKS
BLANDING       PTCLDY    76  50  39 N7        30.23S
BRYCE CANYON   PTCLDY    62  42  47 S5        30.33S
CEDAR CITY     CLEAR     86  39  19 S10       30.11S
DELTA          CLEAR     88  27  11 NE6       30.02R
MILFORD        CLEAR     85  44  23 S7        30.03R
MOAB/CYNLANDS  MOCLDY    87  44  22 SE18      30.01F
PRICE          PTCLDY    83  33  16 E3        30.17R
ST GEORGE      PTCLDY   100  46  16 SE8       29.88S HX  96

$$

REGIONAL REPORTS     COLORADO/ARIZONA

CITY           SKY/WX    TMP DP  RH WIND       PRES   REMARKS
CRAIG, CO      CLOUDY    65  48  54 CALM      30.24R
GRAND JUNCTION CLOUDY    84  39  20 E12       30.09F
RIFLE          CLOUDY    78  42  27 NE6       30.18S
MONTROSE       CLOUDY    78  45  30 CALM      30.21R
CORTEZ         CLEAR     78  46  32 CALM      30.17R
PAGE, AZ       CLEAR     92  41  17 SW5       30.01R
GRAND CANYON   PTCLDY    72  43  35 CALM      30.26S HAZE
KINGMAN        PTCLDY    97  47  18 SW12      29.94R HX  93
FLAGSTAFF      PTCLDY    65  57  75 NE3       30.29R

$$

REGIONAL REPORTS    NEVADA/IDAHO/WYOMING

CITY           SKY/WX    TMP DP  RH WIND       PRES   REMARKS
LAS VEGAS, NV  PTCLDY   107  39  10 E5        29.75S HX 101
ELY            CLEAR     81  15   8 N6        30.16R
ELKO           CLEAR     88  17   7 NW5       30.09R
POCATELLO, ID  CLEAR     79  40  24 NE9       30.05R
BURLEY         CLEAR     72  51  47 SW8       30.00S
EVANSTON, WY   CLEAR     73  17  12 W12       30.25S
ROCK SPRINGS   CLOUDY    76  29  17 SW6       30.21S
KEMMERER         N/A    N/A N/A N/A N8        30.26S

$$



USA.gov is the U.S. government's official web portal to all federal, state and local government web resources and services.